Location: Gleizolles
(44.4833°N, 6.7667°E)
Time: 13:19:04
(UTC+00:00)

Vanguard 1 - Pass Details

Date: 04 July 2024
Orbit: 650 x 3826 km, 34.3° (Epoch: 15 July)

Event Time Altitude Azimuth Distance (km) Brightness Sun altitude
Rises 07:12:10 0° 229° (SW) 7,703 14.2 32.4°
Reaches altitude 10° 07:18:18 10° 224° (SW) 6,364 13.9 33.5°
Maximum altitude 07:34:43 40° 164° (SSE) 3,165 13.3 36.4°
Drops below altitude 10° 07:44:32 10° 99° (E) 3,874 14.4 38.2°
Sets 07:47:15 0° 91° (E) 4,526 14.4 38.6°
